TimePST,TemperatureF,Dew PointF,Humidity,Sea Level PressureIn,VisibilityMPH,Wind Direction,Wind SpeedMPH,Gust SpeedMPH,PrecipitationIn,Events,Conditions,WindDirDegrees,DateUTC
12:56 AM,28.0,8.1,43,30.21,10.0,WNW,6.9,-,N/A,,Clear,300,2012-11-14 08:56:00
1:56 AM,25.0,8.1,49,30.21,10.0,NW,5.8,-,N/A,,Clear,320,2012-11-14 09:56:00
2:56 AM,26.1,8.1,47,30.20,10.0,NNW,6.9,-,N/A,,Clear,330,2012-11-14 10:56:00
3:56 AM,23.0,7.0,50,30.22,10.0,North,6.9,-,N/A,,Clear,360,2012-11-14 11:56:00
4:56 AM,24.1,7.0,48,30.23,10.0,NNW,5.8,-,N/A,,Clear,340,2012-11-14 12:56:00
5:56 AM,23.0,8.1,53,30.23,10.0,NNW,6.9,-,N/A,,Clear,340,2012-11-14 13:56:00
6:56 AM,27.0,8.1,45,30.24,10.0,NNW,6.9,-,N/A,,Clear,340,2012-11-14 14:56:00
7:56 AM,35.1,10.0,35,30.26,10.0,NW,4.6,-,N/A,,Clear,310,2012-11-14 15:56:00
8:56 AM,39.9,10.0,29,30.26,10.0,Calm,Calm,-,N/A,,Clear,0,2012-11-14 16:56:00
9:56 AM,50.0,10.0,20,30.23,10.0,Calm,Calm,-,N/A,,Clear,0,2012-11-14 17:56:00
10:56 AM,54.0,9.0,17,30.20,10.0,Calm,Calm,-,N/A,,Clear,0,2012-11-14 18:56:00
11:56 AM,57.9,9.0,14,30.16,10.0,Calm,Calm,-,N/A,,Clear,0,2012-11-14 19:56:00
12:56 PM,60.1,9.0,13,30.12,10.0,SE,3.5,-,N/A,,Clear,130,2012-11-14 20:56:00
1:56 PM,62.1,9.0,12,30.09,10.0,South,5.8,-,N/A,,Clear,180,2012-11-14 21:56:00
2:56 PM,63.0,9.0,12,30.08,10.0,South,8.1,-,N/A,,Clear,170,2012-11-14 22:56:00
3:56 PM,61.0,9.0,13,30.10,10.0,SSE,4.6,-,N/A,,Clear,160,2012-11-14 23:56:00
4:56 PM,54.0,9.0,17,30.12,10.0,Calm,Calm,-,N/A,,Clear,0,2012-11-15 00:56:00
5:56 PM,48.9,10.0,21,30.15,10.0,South,4.6,-,N/A,,Clear,170,2012-11-15 01:56:00
6:56 PM,41.0,9.0,27,30.17,10.0,Calm,Calm,-,N/A,,Clear,0,2012-11-15 02:56:00
7:56 PM,34.0,9.0,35,30.18,10.0,NNW,6.9,-,N/A,,Clear,340,2012-11-15 03:56:00
8:56 PM,33.1,10.0,38,30.19,10.0,NW,5.8,-,N/A,,Clear,320,2012-11-15 04:56:00
9:56 PM,34.0,9.0,35,30.17,10.0,NNE,4.6,-,N/A,,Clear,20,2012-11-15 05:56:00
10:56 PM,35.1,10.0,35,30.15,10.0,North,3.5,-,N/A,,Clear,10,2012-11-15 06:56:00